Theta_e
354 361 363 364 364 364 364 365 364 363 362 360 360 361 361 361 361 362 363 363 363 363 359 358 357 358 357 356 355 355 356 356 355 355 355 354 353 352 350 350 349 345 348
358 361 362 363 363 364 364 364 364 363 363 363 362 362 361 361 362 362 362 363 363 360 357 357 357 356 354 355 354 354 354 354 356 354 353 353 353 351 350 350 348 347 349
358 362 360 362 363 363 363 363 362 362 362 363 362 361 361 361 362 362 362 362 361 358 355 354 355 355 355 355 355 355 354 355 355 352 351 350 351 350 348 348 347 347 347
359 360 358 362 362 363 362 361 361 362 362 362 362 361 361 362 362 362 361 361 358 356 354 353 354 354 354 354 354 355 355 355 355 353 353 349 347 351 348 348 348 346 345
358 359 359 362 362 362 361 360 360 360 360 361 361 361 361 361 361 361 361 360 358 356 353 353 354 356 355 354 355 355 355 355 354 352 351 352 354 350 350 350 350 348 345
357 358 360 361 361 361 361 360 360 360 360 361 361 361 361 361 360 360 360 360 358 356 352 353 355 356 356 355 355 354 354 353 351 346 343 341 341 354 352 351 350 350 348
356 357 359 360 361 361 361 360 359 359 359 360 360 361 360 360 360 360 359 358 356 354 353 353 354 356 356 355 354 353 353 351 347 342 338 341 346 348 354 353 352 352 351
356 357 357 360 360 360 360 359 358 358 358 359 359 359 359 358 358 358 358 357 357 356 355 355 355 355 354 354 353 352 352 349 344 341 337 338 348 348 353 356 355 354 352
357 356 356 356 359 360 359 358 358 357 357 357 357 357 358 358 358 358 358 357 356 355 354 354 354 354 353 353 352 352 352 348 343 338 334 335 342 346 352 357 356 356 354
355 354 355 356 353 354 357 359 358 357 357 357 357 357 357 357 358 358 355 356 354 354 353 353 353 352 351 350 350 349 348 344 338 335 334 335 336 339 344 356 358 358 357
352 354 354 352 354 354 354 355 357 357 358 357 357 358 355 353 356 357 356 354 354 353 352 351 351 350 349 348 347 346 344 334 335 333 333 341 337 339 343 354 358 358 358
348 351 353 353 353 353 351 356 355 354 354 354 354 355 352 354 354 352 354 355 354 354 354 353 352 351 348 339 338 337 333 335 335 335 334 341 340 340 344 349 358 358 358
348 351 352 355 355 352 350 353 354 354 355 356 356 357 356 353 353 351 351 351 353 353 349 350 349 346 344 343 339 338 336 335 332 332 334 341 342 342 345 349 352 356 358
347 350 353 355 355 355 352 352 353 352 354 354 355 357 355 353 353 353 351 351 352 350 350 350 347 348 347 345 343 340 339 337 333 333 334 341 342 344 345 350 352 353 356
346 349 352 356 356 356 356 354 354 353 353 354 355 356 355 352 352 352 352 352 352 352 351 351 350 349 348 347 344 342 339 339 338 335 333 341 341 343 347 350 354 354 357
349 349 352 354 357 358 357 357 356 356 356 356 356 357 358 355 354 353 352 351 351 351 351 351 351 351 350 349 348 346 344 342 341 339 336 335 340 342 345 349 353 356 357
351 353 353 353 356 357 357 357 357 356 356 355 356 359 358 356 352 354 353 353 353 354 354 353 352 352 350 349 348 348 347 346 344 343 341 340 339 341 344 347 351 356 358
349 351 355 353 353 355 356 356 356 356 356 356 356 357 357 356 355 353 354 354 355 355 353 352 351 349 349 348 347 347 347 347 346 345 344 344 342 341 342 348 349 353 356
329 335 348 355 353 354 355 354 356 358 356 356 356 356 357 356 356 356 355 355 358 354 353 353 352 350 348 348 347 347 347 345 346 344 345 345 346 344 342 342 348 349 352
330 337 342 347 351 352 352 353 353 354 355 355 355 355 357 357 357 357 356 357 356 353 351 350 349 350 348 347 346 345 346 346 345 345 345 346 346 345 346 347 345 345 348
330 337 344 345 349 348 347 348 348 348 350 350 352 354 353 353 353 354 353 352 352 349 349 349 347 344 343 347 342 341 343 346 345 344 345 344 345 345 346 347 348 347 346
333 337 344 346 348 349 348 344 347 348 349 352 354 356 356 353 350 348 347 344 345 342 344 343 343 338 338 343 337 338 329 336 341 344 344 343 344 343 343 346 347 352 350
330 335 339 343 344 342 340 334 334 334 335 336 337 337 340 342 343 343 341 342 342 341 334 338 338 339 333 336 342 335 328 326 334 340 342 341 344 342 344 347 348 349 351
326 329 332 333 335 335 336 335 340 331 327 328 329 330 333 334 334 337 339 339 340 335 336 334 334 336 337 331 334 338 339 337 328 326 336 340 341 340 344 343 344 346 348
322 323 327 328 329 331 333 335 329 331 327 328 328 332 334 334 335 335 337 337 336 333 335 336 336 336 334 333 331 331 335 335 337 331 325 329 337 340 340 342 341 342 346
320 322 325 327 329 330 330 330 333 334 331 326 328 326 327 328 331 334 335 336 335 333 333 332 334 335 335 335 334 335 332 330 328 332 327 329 330 335 338 340 341 341 343
Wind_Speed
11 15 14 13 11 12 13 16 17 18 18 18 18 18 18 17 16 15 14 12 12 12 12 12 12 12 12 12 12 11 10 11 11 10 8 6 6 8 6 8 7 6 6
16 16 15 14 12 12 14 15 17 18 18 18 18 18 18 17 16 14 13 12 11 12 11 11 11 11 12 12 11 11 11 11 10 9 7 6 5 5 7 7 4 7 6
19 17 16 13 13 12 13 15 16 17 17 17 18 18 17 16 15 14 12 11 11 11 10 10 11 11 11 11 11 10 10 9 8 8 6 3 4 5 5 6 6 5 5
18 17 17 15 14 12 13 15 16 17 17 17 17 17 16 16 14 13 11 10 11 10 10 10 10 10 11 10 10 9 9 8 8 7 5 4 3 6 5 5 5 5 5
16 16 16 17 16 14 13 14 15 16 16 17 16 16 15 14 13 11 10 9 10 9 9 9 10 9 9 9 8 7 6 6 6 6 3 3 3 7 7 7 7 6 5
17 16 17 17 17 17 15 14 14 15 15 16 16 16 14 14 12 10 9 8 8 8 8 9 9 8 8 8 7 6 6 6 5 5 4 3 6 4 8 8 6 6 7
17 15 17 18 18 18 18 16 16 16 15 15 15 15 14 14 13 11 10 9 8 8 8 8 8 7 6 7 7 7 7 7 7 4 4 5 6 8 10 10 9 9 9
16 15 15 16 17 18 19 18 17 16 16 16 15 15 14 14 13 12 11 10 9 9 9 9 9 8 8 8 8 8 8 8 7 6 5 4 4 8 11 10 10 10 10
15 14 13 14 14 14 16 16 16 16 15 15 14 13 13 12 11 10 9 8 7 7 7 7 7 7 7 7 7 8 7 7 9 5 6 4 1 6 10 10 11 11 11
14 14 13 12 13 13 13 13 14 14 14 14 13 12 11 10 8 7 6 6 5 4 4 5 5 6 6 7 7 7 7 9 9 7 6 5 5 8 10 12 12 11 12
12 13 12 13 12 12 12 12 11 13 12 11 11 10 9 8 9 9 5 3 5 5 6 5 5 6 6 7 5 5 7 5 6 5 5 3 8 10 11 10 12 12 13
16 15 13 13 12 12 10 12 12 11 9 9 10 10 8 8 8 8 7 9 9 9 8 7 6 5 7 6 5 5 4 5 6 6 6 6 11 10 12 11 12 14 15
14 12 14 12 12 13 10 9 6 6 7 7 10 9 8 7 6 7 5 6 7 9 7 7 7 7 7 6 6 6 7 7 5 6 8 8 11 14 13 12 14 15 16
14 14 14 14 13 13 9 9 8 8 8 7 9 10 7 6 7 6 5 6 6 5 6 7 5 7 8 9 9 9 9 8 6 5 8 10 14 14 15 13 15 16 16
14 15 15 15 14 12 12 9 8 9 9 9 9 10 8 8 7 7 7 6 6 6 6 7 7 7 8 9 9 10 11 11 11 7 6 13 14 15 16 15 16 15 17
15 15 16 17 16 14 12 12 9 8 9 9 8 9 12 8 7 7 8 8 7 7 7 7 8 8 8 9 11 11 11 11 11 11 9 9 12 16 16 17 16 15 17
15 13 16 16 15 15 15 13 10 9 9 9 9 11 12 10 10 10 8 8 8 8 10 8 9 9 9 9 12 11 11 13 12 12 11 10 10 13 16 16 16 15 16
12 14 13 13 15 15 14 11 9 9 9 9 9 9 12 11 11 10 8 8 8 7 7 7 8 9 9 9 9 9 9 10 12 13 12 11 10 9 10 16 16 15 15
9 9 13 14 16 16 14 11 11 12 10 9 8 8 10 11 11 9 7 6 6 6 7 7 8 9 9 9 10 9 9 9 11 11 14 13 13 11 10 11 12 14 15
8 8 10 11 12 13 9 9 8 8 9 7 7 7 9 8 9 8 6 6 6 6 7 7 9 8 9 10 10 10 10 11 11 11 13 13 13 14 12 13 10 11 16
7 10 13 14 12 11 10 9 9 10 8 7 7 10 9 8 9 7 5 6 6 6 6 7 8 9 8 7 9 10 11 11 13 12 12 12 14 15 14 12 10 9 9
11 12 11 11 11 10 7 4 2 6 5 5 6 8 8 8 8 7 6 5 5 4 4 5 7 7 7 5 6 7 7 8 9 10 11 11 14 11 13 13 13 11 11
13 13 9 7 8 8 9 7 5 5 4 3 3 4 5 8 8 8 8 6 5 4 4 4 6 8 8 7 9 6 4 7 8 7 7 8 11 10 11 10 12 10 10
12 5 5 5 6 5 6 6 8 6 7 5 6 4 6 6 6 6 6 5 5 4 5 5 6 7 8 9 7 8 12 13 9 9 8 7 8 10 11 10 11 10 9
4 4 7 8 7 7 7 8 8 7 5 4 4 5 6 6 7 8 8 8 7 7 6 7 7 8 8 10 10 9 8 9 12 11 13 12 10 10 10 9 10 9 8
7 8 9 8 8 7 6 5 6 6 6 6 6 7 7 7 7 9 10 9 10 9 8 7 8 9 9 9 10 11 11 10 9 10 9 13 16 12 10 10 10 10 10
Wind_Direction
160 154 152 156 153 140 135 135 134 134 136 136 137 132 131 133 136 139 140 138 131 128 128 128 125 124 126 126 123 125 123 121 120 120 121 126 137 138 132 134 144 126 128
150 151 152 156 154 144 136 132 128 129 132 134 134 133 133 134 137 140 140 138 134 134 135 137 133 131 131 131 134 136 132 132 133 131 131 130 149 152 155 149 149 109 140
149 149 157 154 155 148 138 129 127 128 128 130 132 133 135 137 140 141 141 141 140 142 145 146 144 142 140 141 145 143 139 142 143 145 150 139 128 147 163 158 155 149 151
149 152 157 156 153 152 144 135 133 132 132 133 133 134 138 140 142 142 143 146 148 153 156 153 150 148 148 151 152 152 154 157 155 157 188 164 167 165 183 172 165 161 166
152 154 155 155 152 152 149 140 136 134 134 133 133 136 139 138 138 138 143 149 158 163 163 160 159 159 160 161 163 166 172 177 176 206 229 241 229 149 190 188 182 177 183
154 159 151 154 154 153 153 151 140 137 137 137 139 141 143 138 136 141 147 156 168 171 170 169 168 170 173 170 171 183 197 204 214 227 241 254 257 156 198 202 209 198 190
156 164 161 160 160 157 157 157 151 147 146 145 144 146 147 143 143 147 156 164 176 180 180 180 180 184 183 182 192 206 221 227 244 246 267 275 268 193 207 205 211 209 203
157 164 163 166 165 163 160 161 157 153 151 151 151 152 153 152 155 163 169 176 182 184 187 188 188 193 198 201 206 217 230 241 242 265 265 274 319 217 212 207 212 218 213
162 164 168 173 173 167 164 160 159 155 155 155 155 157 158 160 165 169 176 182 190 197 201 204 211 220 226 227 228 237 250 264 275 278 285 263 52 271 239 223 219 226 226
166 169 172 178 177 179 173 163 160 159 160 158 160 161 162 164 166 175 184 196 208 222 236 245 244 249 260 273 286 298 302 289 274 291 279 283 302 277 270 246 230 228 226
177 177 181 180 178 182 178 171 165 165 162 159 163 164 160 187 188 190 197 191 222 232 239 243 260 273 281 270 288 310 304 275 284 281 286 311 275 275 272 254 235 228 232
187 185 185 186 183 184 181 175 181 177 182 183 184 183 191 191 197 207 209 205 213 218 223 224 229 252 259 271 265 245 258 277 276 273 268 256 272 273 272 262 240 232 222
193 192 192 188 188 193 188 183 180 183 181 186 192 190 194 195 201 210 217 216 226 215 234 216 220 228 235 245 259 267 266 254 265 275 273 257 251 264 259 256 249 236 237
198 200 194 196 194 197 191 192 185 188 186 189 195 195 194 201 207 222 227 231 234 237 245 242 247 253 246 247 247 252 256 262 253 256 271 255 258 254 259 248 245 248 231
208 202 202 199 199 198 197 194 197 199 193 191 193 197 204 211 216 222 232 239 246 249 250 255 256 263 265 262 259 258 260 261 258 259 256 253 239 242 252 253 245 241 231
211 206 202 204 200 199 202 198 198 198 199 195 200 202 205 213 219 225 228 235 243 250 256 261 267 272 270 270 267 262 266 265 265 266 262 268 244 249 244 246 252 244 240
221 208 205 202 199 202 202 198 201 200 197 204 206 209 207 208 217 230 230 234 236 239 251 254 258 258 262 263 267 267 265 261 261 265 264 259 267 239 245 250 252 245 237
214 211 205 201 197 202 201 197 195 198 200 211 208 204 209 211 214 218 227 232 240 242 253 259 262 266 266 265 270 269 261 264 266 260 262 265 257 262 243 228 240 243 238
219 210 210 203 203 200 197 194 198 199 205 210 212 211 212 216 218 228 239 249 248 255 249 252 257 259 271 269 269 270 272 270 269 269 265 264 263 260 260 251 233 236 238
200 202 206 202 199 191 186 190 199 204 210 205 208 209 205 213 215 220 238 252 253 255 257 257 263 271 269 280 280 277 276 270 266 262 264 262 259 254 251 256 254 248 225
218 203 204 190 184 176 177 179 196 205 200 205 208 210 213 218 218 214 225 228 230 245 261 270 273 273 270 257 280 270 269 255 259 260 256 257 257 252 248 244 244 247 245
200 214 207 198 180 179 172 166 190 182 205 218 209 204 197 189 186 188 194 202 213 235 244 255 260 275 265 237 265 283 286 275 257 251 253 251 253 252 254 243 241 237 248
210 208 211 193 183 173 156 129 112 106 94 141 176 173 186 183 182 185 185 188 196 218 251 262 267 271 272 274 240 247 268 246 299 266 241 255 256 252 253 254 250 228 242
215 189 157 136 153 147 150 149 150 161 166 190 189 183 184 196 198 195 196 198 209 227 236 254 263 266 263 263 262 242 250 267 273 280 264 266 264 262 256 256 251 237 224
218 158 118 119 134 149 165 168 166 173 189 178 182 188 206 215 220 214 209 205 211 220 223 233 248 254 263 269 262 259 255 253 256 258 269 274 260 258 258 252 248 244 223
144 130 127 144 161 171 191 192 207 195 190 189 204 215 216 222 221 223 218 216 218 217 218 226 232 244 256 266 269 267 262 257 260 251 251 258 273 271 262 255 251 240 233